Tiempo cada hora Abramivka

Hoy, 20 Octubre, Martes

Tiempo Temperatura Precipitaciones Viento Presión Humedad
00:00 +3°C° 0 mm 3 mps 755 mmHg 79%
01:00 +3°C° 0 mm 3 mps 755 mmHg 82%
02:00 +3°C° 0 mm 4 mps 755 mmHg 85%
03:00 +3°C° 0 mm 4 mps 755 mmHg 86%
04:00 +3°C° 0 mm 4 mps 755 mmHg 88%
05:00 +3°C° 0 mm 4 mps 755 mmHg 89%
06:00 +3°C° 0 mm 4 mps 756 mmHg 87%
07:00 +4°C° 0 mm 4 mps 756 mmHg 84%
08:00 +3°C° 0 mm 5 mps 756 mmHg 82%
09:00 +6°C° 0 mm 5 mps 756 mmHg 75%
10:00 +7°C° 0 mm 5 mps 756 mmHg 68%
11:00 +9°C° 0 mm 5 mps 756 mmHg 62%
12:00 +9°C° 0 mm 5 mps 757 mmHg 60%
13:00 +9°C° 0 mm 5 mps 757 mmHg 59%
14:00 +10°C° 0 mm 5 mps 757 mmHg 58%
15:00 +10°C° 0 mm 4 mps 757 mmHg 63%
16:00 +8°C° 0 mm 4 mps 757 mmHg 67%
17:00 +8°C° 0 mm 3 mps 757 mmHg 72%
18:00 +7°C° 0 mm 2 mps 757 mmHg 75%
19:00 +7°C° 0 mm 2 mps 757 mmHg 77%
20:00 +6°C° 0 mm 2 mps 758 mmHg 79%
21:00 +6°C° 0 mm 2 mps 758 mmHg 80%
22:00 +6°C° 0 mm 2 mps 758 mmHg 81%
23:00 +7°C° 0 mm 1 mps 758 mmHg 83%

Mañana, 21 Octubre, Miércoles

Tiempo Temperatura Precipitaciones Viento Presión Humedad
00:00 +6°C° 0 mm 2 mps 758 mmHg 83%
01:00 +5°C° 0 mm 2 mps 758 mmHg 84%
02:00 +5°C° 0 mm 2 mps 758 mmHg 84%
03:00 +5°C° 0 mm 2 mps 757 mmHg 84%
04:00 +5°C° 0 mm 2 mps 757 mmHg 84%
05:00 +4°C° 0 mm 3 mps 757 mmHg 84%
06:00 +5°C° 0 mm 3 mps 756 mmHg 80%
07:00 +6°C° 0 mm 4 mps 756 mmHg 77%
08:00 +6°C° 0 mm 4 mps 756 mmHg 74%
09:00 +8°C° 0 mm 5 mps 755 mmHg 69%
10:00 +9°C° 0 mm 5 mps 755 mmHg 64%
11:00 +10°C° 0 mm 5 mps 754 mmHg 59%
12:00 +10°C° 0 mm 5 mps 754 mmHg 59%
13:00 +10°C° 0 mm 5 mps 754 mmHg 60%
14:00 +12°C° 0 mm 5 mps 753 mmHg 60%
15:00 +11°C° 0 mm 4 mps 753 mmHg 63%
16:00 +11°C° 0 mm 4 mps 752 mmHg 65%
17:00 +10°C° 0 mm 4 mps 752 mmHg 68%
18:00 +10°C° 0 mm 3 mps 752 mmHg 70%
19:00 +10°C° 0 mm 3 mps 752 mmHg 71%
20:00 +9°C° 0 mm 3 mps 752 mmHg 73%
21:00 +9°C° 0 mm 3 mps 752 mmHg 72%
22:00 +10°C° 0 mm 3 mps 752 mmHg 70%
23:00 +10°C° 0 mm 3 mps 752 mmHg 69%

Pasado mañana, 22 Octubre, Jueves

Tiempo Temperatura Precipitaciones Viento Presión Humedad
00:00 +9°C° 0 mm 3 mps 752 mmHg 69%
01:00 +9°C° 0 mm 3 mps 752 mmHg 70%
02:00 +9°C° 0 mm 3 mps 752 mmHg 70%
03:00 +9°C° 0 mm 3 mps 752 mmHg 69%
04:00 +8°C° 0 mm 3 mps 752 mmHg 68%
05:00 +8°C° 0 mm 3 mps 752 mmHg 68%
06:00 +8°C° 0 mm 3 mps 752 mmHg 66%
07:00 +9°C° 0 mm 3 mps 752 mmHg 64%
08:00 +9°C° 0 mm 3 mps 752 mmHg 62%
09:00 +10°C° 0 mm 4 mps 752 mmHg 60%
10:00 +12°C° 0 mm 4 mps 752 mmHg 57%
11:00 +13°C° 0 mm 5 mps 752 mmHg 55%
12:00 +14°C° 0 mm 5 mps 752 mmHg 54%
13:00 +15°C° 0 mm 5 mps 751 mmHg 54%
14:00 +16°C° 0 mm 6 mps 751 mmHg 54%
15:00 +15°C° 0 mm 5 mps 751 mmHg 60%
16:00 +14°C° 0 mm 4 mps 751 mmHg 65%
17:00 +13°C° 0 mm 4 mps 751 mmHg 71%
18:00 +12°C° 0 mm 3 mps 751 mmHg 76%
19:00 +11°C° 0 mm 3 mps 752 mmHg 80%
20:00 +11°C° 0 mm 3 mps 752 mmHg 85%
21:00 +10°C° 0 mm 3 mps 752 mmHg 86%
22:00 +10°C° 0 mm 2 mps 752 mmHg 88%
23:00 +10°C° 0 mm 2 mps 752 mmHg 90%

23 Octubre, Viernes

Tiempo Temperatura Precipitaciones Viento Presión Humedad
00:00 +10°C° 0 mm 2 mps 752 mmHg 90%
01:00 +10°C° 0 mm 2 mps 752 mmHg 90%
02:00 +10°C° 0 mm 2 mps 752 mmHg 90%
03:00 +9°C° 0 mm 2 mps 752 mmHg 90%
04:00 +9°C° 0 mm 2 mps 752 mmHg 90%
05:00 +9°C° 0 mm 2 mps 751 mmHg 90%
06:00 +10°C° 0 mm 2 mps 751 mmHg 89%
07:00 +10°C° 0 mm 2 mps 751 mmHg 87%
08:00 +10°C° 0 mm 2 mps 751 mmHg 85%
09:00 +13°C° 0 mm 2 mps 751 mmHg 79%
10:00 +13°C° 0 mm 3 mps 750 mmHg 73%
11:00 +16°C° 0 mm 3 mps 750 mmHg 68%
12:00 +16°C° 0 mm 3 mps 750 mmHg 64%
13:00 +17°C° 0 mm 3 mps 749 mmHg 61%
14:00 +17°C° 0 mm 3 mps 748 mmHg 57%
15:00 +16°C° 0 mm 3 mps 748 mmHg 60%
16:00 +15°C° 0 mm 2 mps 748 mmHg 62%
17:00 +14°C° 0 mm 2 mps 747 mmHg 65%
18:00 +14°C° 0 mm 2 mps 747 mmHg 65%
19:00 +13°C° 0 mm 2 mps 747 mmHg 65%
20:00 +13°C° 0 mm 2 mps 747 mmHg 65%
21:00 +12°C° 0 mm 3 mps 747 mmHg 67%
22:00 +11°C° 0 mm 3 mps 747 mmHg 69%
23:00 +11°C° 0 mm 3 mps 747 mmHg 71%

24 Octubre, Sábado

Tiempo Temperatura Precipitaciones Viento Presión Humedad
00:00 +11°C° 0 mm 3 mps 747 mmHg 73%
01:00 +11°C° 0 mm 3 mps 747 mmHg 76%
02:00 +11°C° 0 mm 3 mps 747 mmHg 79%
03:00 +12°C° 0 mm 2 mps 747 mmHg 80%
04:00 +12°C° 0 mm 2 mps 747 mmHg 82%
05:00 +12°C° 0 mm 2 mps 747 mmHg 84%
06:00 +12°C° 0 mm 2 mps 747 mmHg 83%
07:00 +12°C° 0 mm 2 mps 747 mmHg 83%
08:00 +12°C° 0 mm 2 mps 747 mmHg 83%
09:00 +13°C° 0 mm 2 mps 747 mmHg 81%
10:00 +13°C° 0 mm 2 mps 747 mmHg 80%
11:00 +14°C° 0 mm 2 mps 747 mmHg 79%
12:00 +14°C° 0.1 mm 2 mps 747 mmHg 78%
13:00 +14°C° 0.1 mm 2 mps 747 mmHg 78%
14:00 +14°C° 0.1 mm 2 mps 747 mmHg 78%
15:00 +14°C° 0 mm 2 mps 747 mmHg 78%
16:00 +14°C° 0 mm 2 mps 746 mmHg 78%
17:00 +14°C° 0 mm 2 mps 746 mmHg 79%
18:00 +14°C° 0 mm 2 mps 746 mmHg 79%
19:00 +13°C° 0 mm 2 mps 746 mmHg 79%
20:00 +13°C° 0 mm 2 mps 746 mmHg 79%
21:00 +13°C° 0.1 mm 2 mps 747 mmHg 81%
22:00 +13°C° 0.1 mm 2 mps 747 mmHg 83%
23:00 +12°C° 0.1 mm 3 mps 747 mmHg 85%

25 Octubre, Domingo

Tiempo Temperatura Precipitaciones Viento Presión Humedad
00:00 +11°C° 0 mm 3 mps 747 mmHg 87%
01:00 +11°C° 0 mm 3 mps 747 mmHg 88%
02:00 +11°C° 0 mm 3 mps 747 mmHg 90%
03:00 +11°C° 0 mm 3 mps 747 mmHg 90%
04:00 +11°C° 0 mm 3 mps 747 mmHg 89%
05:00 +11°C° 0 mm 3 mps 747 mmHg 89%
06:00 +11°C° 0 mm 3 mps 748 mmHg 89%
07:00 +10°C° 0 mm 4 mps 748 mmHg 88%
08:00 +10°C° 0 mm 4 mps 748 mmHg 88%
09:00 +10°C° 0 mm 4 mps 748 mmHg 84%
10:00 +10°C° 0 mm 4 mps 748 mmHg 81%
11:00 +10°C° 0 mm 3 mps 749 mmHg 77%
12:00 +11°C° 0 mm 3 mps 749 mmHg 75%
13:00 +11°C° 0 mm 3 mps 749 mmHg 73%
14:00 +11°C° 0 mm 3 mps 749 mmHg 71%
15:00 +12°C° 0 mm 2 mps 749 mmHg 73%
16:00 +12°C° 0 mm 1 mps 749 mmHg 76%
17:00 +11°C° 0 mm 1 mps 749 mmHg 79%
18:00 +11°C° 0.1 mm 1 mps 749 mmHg 81%
19:00 +11°C° 0.1 mm 1 mps 749 mmHg 83%
20:00 +10°C° 0.1 mm 1 mps 750 mmHg 85%
21:00 +10°C° 0 mm 1 mps 750 mmHg 86%
22:00 +10°C° 0 mm 1 mps 750 mmHg 86%
23:00 +9°C° 0 mm 1 mps 750 mmHg 87%
Mostrar más

Necesitamos Su Consentimiento

Meteoprog y nuestros Proveedores de Servicios pueden almacenar y acceder a sus datos personales como cookies, identificadores de dispositivo u otras tecnologías similares de su dispositivo y procesar dichos datos para personalizar contenido y anuncios, además de ofrecer funciones de redes sociales y analizar el tráfico.

  • Almacenar y/o acceder a información en su dispositivo

    Se puede almacenar o acceder a cookies, identificadores de dispositivo u otra información de su dispositivo para los fines anteriormente indicados.

  • Anuncios y contenido personalizados, medición de anuncios y contenido, percepciones del público, y desarrollo de productos

    Los anuncios y el contenido pueden personalizarse en base a su perfil. Se pueden añadir más datos para personalizar mejor los anuncios y contenidos. Se puede medir el rendimiento de los anuncios y contenidos. Se puede obtener la percepción sobre el público que ha visto los anuncios y contenidos. Dichos datos pueden usarse para desarrollar o mejorar la experiencia del usuario, sistemas y software.

Al hacer clic en ‘Estoy De Acuerdo’ usted permitirá el uso de las cookies, identificadores de dispositivo, balizas web u otras tecnologías similares indicadas. Su configuración puede cambiarse desde el navegador de su dispositivo.

Para ciertos fines, los intereses legítimos pueden ser considerados por encima del consentimiento. Puede leer más sobre ello en nuestra Política de Privacidad y Cookies.